Location: Kalberh�ni
(46.4610°N, 7.2453°E)
Time: 09:52:43
(UTC+00:00)

Lacrosse 4 Rocket - Pass Details

Date: 24 October 2021
Orbit: 538 x 619 km, 68.0° (Epoch: 28 November)

Event Time Altitude Azimuth Distance (km) Brightness Sun altitude
Rises 19:06:03 0° 314° (NW) 2,824 5.8 -27.7°
Reaches altitude 10° 19:08:51 10° 295° (WNW) 1,934 5.0 -28.1°
Maximum altitude 19:11:47 18° 253° (WSW) 1,494 4.1 -28.6°
Drops below altitude 10° 19:14:45 10° 210° (SSW) 1,953 4.3 -29.1°
Enters shadow 19:14:58 - 208° (SSW) 2,012 4.3 -29.2°
